Powrót do katalogu

COSMOS 2523

AktywnyNawigacjaSSO
NORAD 42986·PAYLOAD·🇷🇺 Russia

Wystrzelony Jun 23, 2017 z Plesetsk Cosmodrome

Loading…

Następne Przeloty (najbliższe 24 godziny)

TLE

ŚwieżeSource: Space-Track

Epoka: Sep 14, 2026, 14:06 UTC

1 42986U 17037E   26257.58811043  .00001725  00000-0  15383-3 0  9997
2 42986  97.5002 266.8824 0064805 290.3055  69.1210 14.95686775482323

Śledź COSMOS 2523 w czasie rzeczywistym z AllMySat

Download on the App Store